| time (UTC) | temp F | wind direction | speed MPH | gust MPH | rain 1hr in | rain 24hr in | rain mn in | humidity % | barometer mb |
| 20260904022313 | 75 | 275 | 0.0 | 1.0 | 0.00 | 0.00 | 0.00 | 81 | 1016.4 |
| 20260904021816 | 75 | 275 | 0.0 | 1.0 | 0.00 | 0.00 | 0.00 | 81 | 1016.3 |
| 20260904021326 | 75 | 360 | 0.0 | 1.0 | 0.00 | 0.00 | 0.00 | 81 | 1016.2 |
| 20260904020827 | 75 | 248 | 0.0 | 1.0 | 0.00 | 0.00 | 0.00 | 81 | 1016.1 |
| 20260904020329 | 75 | 245 | 0.0 | 1.0 | 0.00 | 0.00 | 0.00 | 81 | 1016.1 |
| 20260904015839 | 75 | 360 | 0.0 | 1.0 | 0.00 | 0.00 | 0.00 | 80 | 1016.1 |
| 20260904015319 | 75 | 246 | 0.0 | 2.0 | 0.00 | 0.00 | 0.00 | 81 | 1016.1 |
| 20260904014828 | 75 | 245 | 0.0 | 2.0 | 0.00 | 0.00 | 0.00 | 81 | 1016.0 |
| 20260904014331 | 75 | 244 | 1.0 | 2.0 | 0.00 | 0.00 | 0.00 | 80 | 1016.1 |
| 20260904013812 | 75 | 229 | 1.0 | 2.0 | 0.00 | 0.00 | 0.00 | 80 | 1016.0 |
| 20260904013315 | 75 | 239 | 0.0 | 2.0 | 0.00 | 0.00 | 0.00 | 80 | 1016.0 |
| 20260904012845 | 75 | 245 | 0.0 | 2.0 | 0.00 | 0.00 | 0.00 | 80 | 1015.9 |
| 20260904012333 | 75 | 299 | 1.0 | 3.0 | 0.00 | 0.00 | 0.00 | 80 | 1016.0 |
| 20260904011816 | 75 | 219 | 1.0 | 3.0 | 0.00 | 0.00 | 0.00 | 80 | 1015.9 |
| 20260904011318 | 75 | 213 | 1.0 | 3.0 | 0.00 | 0.00 | 0.00 | 80 | 1015.8 |
| 20260904010819 | 75 | 217 | 1.0 | 3.0 | 0.00 | 0.00 | 0.00 | 79 | 1015.7 |
| 20260904010349 | 75 | 214 | 0.0 | 3.0 | 0.00 | 0.00 | 0.00 | 79 | 1015.6 |
| 20260904005836 | 75 | 215 | 1.0 | 3.0 | 0.00 | 0.00 | 0.00 | 79 | 1015.6 |
| 20260904005338 | 75 | 213 | 1.0 | 3.0 | 0.00 | 0.00 | 0.00 | 79 | 1015.5 |
| 20260904004819 | 75 | 125 | 0.0 | 2.0 | 0.00 | 0.00 | 0.00 | 78 | 1015.3 |
| 20260904004329 | 75 | 170 | 0.0 | 2.0 | 0.00 | 0.00 | 0.00 | 78 | 1015.2 |
| 20260904003830 | 75 | 81 | 0.0 | 2.0 | 0.00 | 0.00 | 0.00 | 77 | 1015.1 |
| 20260904003311 | 75 | 101 | 1.0 | 2.0 | 0.00 | 0.00 | 0.00 | 77 | 1015.1 |
| 20260904002840 | 75 | 212 | 0.0 | 2.0 | 0.00 | 0.00 | 0.00 | 77 | 1015.1 |
| 20260904002320 | 75 | 47 | 1.0 | 2.0 | 0.00 | 0.00 | 0.00 | 77 | 1015.1 |
| 20260904001829 | 75 | 12 | 0.0 | 2.0 | 0.00 | 0.00 | 0.00 | 76 | 1015.2 |
| 20260904001312 | 75 | 86 | 0.0 | 2.0 | 0.00 | 0.00 | 0.00 | 76 | 1015.2 |
| 20260904000813 | 75 | 86 | 0.0 | 2.0 | 0.00 | 0.00 | 0.00 | 76 | 1015.1 |
| 20260904000315 | 76 | 86 | 0.0 | 2.0 | 0.00 | 0.00 | 0.00 | 77 | 1015.2 |
| 20260903235823 | 76 | 86 | 1.0 | 2.0 | 0.00 | 0.00 | 0.00 | 77 | 1015.3 |
| 20260903235352 | 76 | 86 | 1.0 | 2.0 | 0.00 | 0.00 | 0.00 | 77 | 1015.2 |
| 20260903234813 | 77 | 109 | 0.0 | 2.0 | 0.00 | 0.00 | 0.00 | 77 | 1015.1 |
| 20260903234316 | 77 | 109 | 1.0 | 1.0 | 0.00 | 0.00 | 0.00 | 77 | 1015.2 |
| 20260903233842 | 77 | 109 | 0.0 | 2.0 | 0.00 | 0.00 | 0.00 | 77 | 1015.2 |
| 20260903233350 | 77 | 109 | 0.0 | 2.0 | 0.00 | 0.00 | 0.00 | 77 | 1015.0 |
| 20260903232811 | 77 | 189 | 0.0 | 1.0 | 0.00 | 0.00 | 0.00 | 77 | 1015.2 |
| 20260903232312 | 78 | 189 | 0.0 | 1.0 | 0.00 | 0.00 | 0.00 | 76 | 1015.2 |
| 20260903231814 | 78 | 188 | 0.0 | 3.0 | 0.00 | 0.00 | 0.00 | 76 | 1015.1 |
| 20260903231324 | 78 | 190 | 0.0 | 4.0 | 0.00 | 0.00 | 0.00 | 76 | 1014.9 |
| 20260903230824 | 78 | 225 | 2.0 | 4.0 | 0.00 | 0.00 | 0.00 | 75 | 1015.1 |
| 20260903230334 | 78 | 203 | 2.0 | 4.0 | 0.00 | 0.00 | 0.00 | 75 | 1015.1 |
| 20260903225814 | 78 | 217 | 1.0 | 3.0 | 0.00 | 0.00 | 0.00 | 75 | 1014.9 |
| 20260903225315 | 78 | 229 | 1.0 | 2.0 | 0.00 | 0.00 | 0.00 | 75 | 1014.9 |
| 20260903224817 | 78 | 244 | 0.0 | 3.0 | 0.00 | 0.00 | 0.00 | 74 | 1014.6 |
| 20260903224326 | 78 | 215 | 1.0 | 3.0 | 0.00 | 0.00 | 0.00 | 75 | 1014.7 |
| 20260903223857 | 78 | 294 | 1.0 | 3.0 | 0.00 | 0.00 | 0.00 | 73 | 1014.9 |
| 20260903223316 | 78 | 52 | 0.0 | 1.0 | 0.00 | 0.00 | 0.00 | 71 | 1014.9 |
| 20260903222818 | 78 | 52 | 0.0 | 2.0 | 0.00 | 0.00 | 0.00 | 70 | 1014.9 |
| 20260903222320 | 78 | 53 | 0.0 | 2.0 | 0.00 | 0.00 | 0.00 | 70 | 1014.7 |
| 20260903221829 | 79 | 80 | 1.0 | 2.0 | 0.00 | 0.00 | 0.00 | 71 | 1014.6 |
| 20260903221312 | 80 | 182 | 0.0 | 3.0 | 0.00 | 0.00 | 0.00 | 70 | 1014.9 |
| 20260903220814 | 80 | 182 | 1.0 | 3.0 | 0.00 | 0.00 | 0.00 | 70 | 1014.9 |
| 20260903220322 | 81 | 250 | 0.0 | 3.0 | 0.00 | 0.00 | 0.00 | 70 | 1014.7 |
| 20260903215824 | 81 | 213 | 0.0 | 3.0 | 0.00 | 0.00 | 0.00 | 68 | 1014.6 |
| 20260903215354 | 81 | 206 | 2.0 | 3.0 | 0.00 | 0.00 | 0.00 | 69 | 1014.6 |
| 20260903214815 | 82 | 214 | 0.0 | 1.0 | 0.00 | 0.00 | 0.00 | 71 | 1014.6 |
| 20260903214319 | 81 | 213 | 0.0 | 2.0 | 0.00 | 0.00 | 0.00 | 69 | 1014.6 |
| 20260903213819 | 81 | 213 | 0.0 | 5.0 | 0.00 | 0.00 | 0.00 | 71 | 1014.7 |
| 20260903213312 | 81 | 213 | 2.0 | 5.0 | 0.00 | 0.00 | 0.00 | 71 | 1014.8 |
| 20260903212814 | 81 | 206 | 1.0 | 2.0 | 0.00 | 0.00 | 0.00 | 71 | 1014.8 |
| 20260903212339 | 81 | 165 | 0.0 | 4.0 | 0.00 | 0.00 | 0.00 | 72 | 1014.7 |
| 20260903211820 | 82 | 213 | 0.0 | 4.0 | 0.00 | 0.00 | 0.00 | 72 | 1014.8 |
| 20260903211322 | 82 | 200 | 0.0 | 2.0 | 0.00 | 0.00 | 0.00 | 71 | 1014.8 |
| 20260903210815 | 82 | 201 | 0.0 | 3.0 | 0.00 | 0.00 | 0.00 | 72 | 1014.8 |
| 20260903210317 | 82 | 192 | 1.0 | 4.0 | 0.00 | 0.00 | 0.00 | 71 | 1014.8 |
| 20260903205818 | 82 | 225 | 1.0 | 4.0 | 0.00 | 0.00 | 0.00 | 71 | 1014.9 |
| 20260903205343 | 83 | 196 | 1.0 | 4.0 | 0.00 | 0.00 | 0.00 | 71 | 1015.0 |
| 20260903204824 | 82 | 288 | 1.0 | 2.0 | 0.00 | 0.00 | 0.00 | 72 | 1015.2 |
| 20260903204319 | 82 | 253 | 1.0 | 2.0 | 0.00 | 0.00 | 0.00 | 71 | 1015.0 |
| 20260903203820 | 82 | 253 | 1.0 | 4.0 | 0.00 | 0.00 | 0.00 | 70 | 1015.0 |
| 20260903203323 | 83 | 230 | 1.0 | 4.0 | 0.00 | 0.00 | 0.00 | 69 | 1014.9 |
| 20260903202832 | 84 | 210 | 2.0 | 4.0 | 0.00 | 0.00 | 0.00 | 68 | 1014.7 |
| 20260903202314 | 84 | 258 | 1.0 | 2.0 | 0.00 | 0.00 | 0.00 | 72 | 1014.7 |
| 20260903201816 | 82 | 262 | 0.0 | 1.0 | 0.00 | 0.00 | 0.00 | 76 | 1014.9 |
| 20260903201325 | 82 | 240 | 1.0 | 1.0 | 0.00 | 0.00 | 0.00 | 76 | 1014.9 |
| 20260903200826 | 81 | 247 | 1.0 | 1.0 | 0.00 | 0.00 | 0.00 | 76 | 1014.8 |
| 20260903200328 | 81 | 247 | 0.0 | 2.0 | 0.00 | 0.00 | 0.00 | 79 | 1014.8 |
| 20260903195837 | 79 | 237 | 1.0 | 2.0 | 0.00 | 0.00 | 0.00 | 79 | 1014.9 |
| 20260903195318 | 78 | 284 | 0.0 | 2.0 | 0.00 | 0.00 | 0.00 | 80 | 1015.1 |
| 20260903194819 | 77 | 267 | 0.0 | 2.0 | 0.00 | 0.00 | 0.00 | 80 | 1015.1 |
| 20260903194329 | 77 | 360 | 0.0 | 1.0 | 0.00 | 0.00 | 0.00 | 80 | 1015.1 |
| 20260903193830 | 77 | 268 | 0.0 | 1.0 | 0.00 | 0.00 | 0.00 | 79 | 1015.1 |
| 20260903193311 | 77 | 253 | 0.0 | 1.0 | 0.00 | 0.00 | 0.00 | 79 | 1015.3 |
| 20260903192820 | 77 | 253 | 0.0 | 1.0 | 0.00 | 0.00 | 0.00 | 80 | 1015.7 |
| 20260903192323 | 77 | 251 | 0.0 | 2.0 | 0.00 | 0.00 | 0.00 | 80 | 1016.2 |
| 20260903191852 | 76 | 253 | 0.0 | 4.0 | 0.00 | 0.00 | 0.00 | 80 | 1016.5 |
| 20260903191314 | 77 | 216 | 1.0 | 4.0 | 0.00 | 0.00 | 0.00 | 81 | 1016.4 |
| 20260903190815 | 76 | 215 | 3.0 | 4.0 | 0.00 | 0.00 | 0.00 | 82 | 1016.2 |
| 20260903190345 | 75 | 86 | 1.0 | 3.0 | 0.00 | 0.00 | 0.00 | 82 | 1015.8 |
| 20260903185826 | 75 | 103 | 1.0 | 4.0 | 0.00 | 0.00 | 0.00 | 82 | 1016.2 |
| 20260903185335 | 75 | 229 | 2.0 | 4.0 | 0.00 | 0.00 | 0.00 | 81 | 1016.4 |
| 20260903184816 | 76 | 86 | 1.0 | 3.0 | 0.00 | 0.00 | 0.00 | 80 | 1016.3 |
| 20260903184319 | 76 | 211 | 0.0 | 3.0 | 0.00 | 0.00 | 0.00 | 80 | 1017.1 |
| 20260903183827 | 76 | 221 | 1.0 | 3.0 | 0.00 | 0.00 | 0.00 | 80 | 1017.2 |
| 20260903183329 | 76 | 219 | 1.0 | 3.0 | 0.00 | 0.00 | 0.00 | 79 | 1017.3 |
| 20260903182811 | 76 | 219 | 1.0 | 3.0 | 0.00 | 0.00 | 0.00 | 79 | 1017.3 |
| 20260903182312 | 77 | 213 | 1.0 | 2.0 | 0.00 | 0.00 | 0.00 | 80 | 1017.1 |
| 20260903181821 | 77 | 215 | 0.0 | 3.0 | 0.00 | 0.00 | 0.00 | 79 | 1016.9 |
| 20260903181324 | 77 | 211 | 1.0 | 3.0 | 0.00 | 0.00 | 0.00 | 79 | 1017.1 |
| 20260903180832 | 77 | 266 | 0.0 | 1.0 | 0.00 | 0.00 | 0.00 | 79 | 1016.9 |
| 20260903180314 | 77 | 313 | 0.0 | 1.0 | 0.00 | 0.00 | 0.00 | 78 | 1017.0 |
| 20260903175816 | 78 | 313 | 0.0 | 1.0 | 0.00 | 0.00 | 0.00 | 78 | 1017.3 |
| 20260903175318 | 78 | 303 | 0.0 | 1.0 | 0.00 | 0.00 | 0.00 | 79 | 1017.5 |
| 20260903174827 | 77 | 302 | 0.0 | 2.0 | 0.00 | 0.00 | 0.00 | 79 | 1017.6 |
| 20260903174329 | 77 | 302 | 1.0 | 2.0 | 0.00 | 0.00 | 0.00 | 80 | 1017.5 |
| 20260903173836 | 77 | 267 | 1.0 | 4.0 | 0.00 | 0.00 | 0.00 | 80 | 1017.5 |
| 20260903173318 | 77 | 287 | 1.0 | 4.0 | 0.00 | 0.00 | 0.00 | 79 | 1017.4 |
| 20260903172820 | 77 | 293 | 1.0 | 2.0 | 0.00 | 0.00 | 0.00 | 79 | 1017.5 |
| 20260903172322 | 77 | 292 | 1.0 | 3.0 | 0.00 | 0.00 | 0.00 | 79 | 1017.3 |
| 20260903171831 | 77 | 275 | 1.0 | 3.0 | 0.00 | 0.00 | 0.00 | 79 | 1017.4 |
| 20260903171314 | 78 | 261 | 2.0 | 3.0 | 0.00 | 0.00 | 0.00 | 79 | 1017.3 |
| 20260903170814 | 78 | 260 | 2.0 | 3.0 | 0.00 | 0.00 | 0.00 | 79 | 1017.2 |
| 20260903170323 | 78 | 265 | 2.0 | 3.0 | 0.00 | 0.00 | 0.00 | 79 | 1017.0 |
| 20260903165845 | 78 | 265 | 2.0 | 3.0 | 0.00 | 0.00 | 0.00 | 79 | 1016.8 |
| 20260903165333 | 78 | 269 | 2.0 | 3.0 | 0.00 | 0.00 | 0.00 | 80 | 1016.4 |
| 20260903164815 | 78 | 277 | 1.0 | 3.0 | 0.00 | 0.00 | 0.00 | 80 | 1016.0 |
| 20260903164345 | 78 | 360 | 1.0 | 3.0 | 0.00 | 0.00 | 0.00 | 81 | 1015.6 |
| 20260903163825 | 78 | 360 | 2.0 | 3.0 | 0.00 | 0.00 | 0.00 | 81 | 1015.4 |
| 20260903163327 | 78 | 284 | 1.0 | 2.0 | 0.00 | 0.00 | 0.00 | 82 | 1015.1 |
| 20260903162836 | 78 | 306 | 1.0 | 3.0 | 0.00 | 0.00 | 0.00 | 83 | 1014.7 |
| 20260903162317 | 77 | 227 | 1.0 | 3.0 | 0.00 | 0.00 | 0.00 | 83 | 1014.7 |
| 20260903161819 | 77 | 275 | 1.0 | 3.0 | 0.00 | 0.00 | 0.00 | 84 | 1014.4 |
| 20260903161328 | 77 | 220 | 1.0 | 4.0 | 0.00 | 0.00 | 0.00 | 84 | 1014.2 |
| 20260903160849 | 76 | 202 | 1.0 | 4.0 | 0.00 | 0.00 | 0.00 | 84 | 1014.4 |
| 20260903160337 | 76 | 217 | 2.0 | 5.0 | 0.00 | 0.00 | 0.00 | 84 | 1014.5 |
| 20260903155818 | 76 | 213 | 3.0 | 8.0 | 0.00 | 0.00 | 0.00 | 84 | 1014.7 |
| 20260903155321 | 76 | 202 | 4.0 | 8.0 | 0.00 | 0.00 | 0.00 | 84 | 1014.7 |
| 20260903154812 | 76 | 227 | 4.0 | 5.0 | 0.00 | 0.00 | 0.00 | 84 | 1014.7 |
| 20260903154313 | 76 | 205 | 2.0 | 4.0 | 0.00 | 0.00 | 0.00 | 85 | 1014.2 |
| 20260903153814 | 76 | 224 | 2.0 | 4.0 | 0.00 | 0.00 | 0.00 | 85 | 1014.2 |
| 20260903153323 | 76 | 196 | 1.0 | 4.0 | 0.00 | 0.00 | 0.00 | 85 | 1014.2 |
| 20260903152825 | 76 | 186 | 2.0 | 5.0 | 0.00 | 0.00 | 0.00 | 85 | 1014.6 |
| 20260903152327 | 75 | 185 | 1.0 | 6.0 | 0.00 | 0.00 | 0.00 | 85 | 1014.7 |
| 20260903151818 | 75 | 222 | 2.0 | 6.0 | 0.00 | 0.00 | 0.00 | 85 | 1015.0 |
| 20260903151320 | 76 | 360 | 2.0 | 5.0 | 0.00 | 0.00 | 0.00 | 85 | 1014.8 |
| 20260903150821 | 76 | 208 | 2.0 | 138.0 | 0.00 | 0.00 | 0.00 | 85 | 1014.9 |
| 20260903150350 | 75 | 269 | 1.0 | 138.0 | 0.00 | 0.00 | 0.00 | 85 | 1015.0 |
| 20260903145812 | 76 | 16 | 37.0 | 137.0 | 0.00 | 0.00 | 0.00 | 85 | 1015.3 |
| 20260903145340 | 75 | 245 | 18.0 | 133.0 | 0.00 | 0.00 | 0.00 | 86 | 1015.2 |
| 20260903144816 | 75 | 225 | 134.0 | 136.0 | 0.00 | 0.00 | 0.00 | 86 | 1015.1 |
| 20260903144326 | 75 | 227 | 2.0 | 134.0 | 0.00 | 0.00 | 0.00 | 86 | 1015.2 |
| 20260903143827 | 75 | 214 | 137.0 | 139.0 | 0.00 | 0.00 | 0.00 | 86 | 1015.2 |
| 20260903143329 | 75 | 209 | 129.0 | 136.0 | 0.00 | 0.00 | 0.00 | 86 | 1015.3 |
| 20260903142811 | 75 | 76 | 137.0 | 137.0 | 0.00 | 0.00 | 0.00 | 86 | 1015.0 |
| 20260903142319 | 75 | 75 | 137.0 | 137.0 | 0.00 | 0.00 | 0.00 | 86 | 1014.7 |
| 20260903141827 | 75 | 75 | 137.0 | 137.0 | 0.00 | 0.00 | 0.00 | 86 | 1014.7 |
| 20260903141329 | 75 | 76 | 137.0 | 137.0 | 0.00 | 0.00 | 0.00 | 86 | 1015.1 |
| 20260903140811 | 75 | 75 | 137.0 | 137.0 | 0.00 | 0.00 | 0.00 | 86 | 1015.0 |
| 20260903140313 | 74 | 74 | 137.0 | 137.0 | 0.00 | 0.00 | 0.00 | 86 | 1014.9 |
| 20260903135821 | 74 | 76 | 137.0 | 137.0 | 0.00 | 0.00 | 0.00 | 86 | 1014.8 |
| 20260903135323 | 74 | 74 | 136.0 | 137.0 | 0.00 | 0.00 | 0.00 | 86 | 1014.6 |
| 20260903134831 | 74 | 72 | 136.0 | 137.0 | 0.00 | 0.00 | 0.00 | 86 | 1014.6 |
| 20260903134313 | 74 | 74 | 136.0 | 137.0 | 0.00 | 0.00 | 0.00 | 86 | 1014.9 |
| 20260903133814 | 74 | 76 | 137.0 | 137.0 | 0.00 | 0.00 | 0.00 | 86 | 1014.8 |
| 20260903133314 | 74 | 76 | 137.0 | 137.0 | 0.00 | 0.00 | 0.00 | 86 | 1014.9 |
| 20260903132823 | 74 | 74 | 136.0 | 137.0 | 0.00 | 0.00 | 0.00 | 86 | 1014.7 |
| 20260903132346 | 74 | 73 | 136.0 | 137.0 | 0.00 | 0.00 | 0.00 | 86 | 1014.7 |
| 20260903131834 | 74 | 72 | 136.0 | 137.0 | 0.00 | 0.00 | 0.00 | 86 | 1014.6 |
| 20260903131317 | 73 | 76 | 136.0 | 137.0 | 0.00 | 0.00 | 0.00 | 86 | 1014.6 |
| 20260903130817 | 73 | 73 | 136.0 | 137.0 | 0.00 | 0.00 | 0.00 | 86 | 1014.7 |
| 20260903130326 | 73 | 71 | 136.0 | 137.0 | 0.00 | 0.00 | 0.00 | 86 | 1014.8 |
| 20260903125828 | 73 | 76 | 136.0 | 137.0 | 0.00 | 0.00 | 0.00 | 86 | 1014.9 |
| 20260903125327 | 72 | 72 | 136.0 | 137.0 | 0.00 | 0.00 | 0.00 | 86 | 1015.0 |
| 20260903124837 | 72 | 71 | 136.0 | 137.0 | 0.00 | 0.00 | 0.00 | 86 | 1014.9 |
| 20260903124319 | 72 | 74 | 136.0 | 137.0 | 0.00 | 0.00 | 0.00 | 86 | 1015.0 |
| 20260903123820 | 72 | 78 | 136.0 | 137.0 | 0.00 | 0.00 | 0.00 | 86 | 1014.9 |
| 20260903123329 | 72 | 71 | 136.0 | 137.0 | 0.00 | 0.00 | 0.00 | 86 | 1014.9 |
| 20260903122829 | 72 | 80 | 137.0 | 137.0 | 0.00 | 0.00 | 0.00 | 86 | 1015.0 |
| 20260903122336 | 72 | 79 | 137.0 | 137.0 | 0.00 | 0.00 | 0.00 | 85 | 1015.0 |
| 20260903121818 | 72 | 79 | 137.0 | 137.0 | 0.00 | 0.00 | 0.00 | 85 | 1015.0 |
| 20260903121321 | 72 | 75 | 136.0 | 137.0 | 0.00 | 0.00 | 0.00 | 85 | 1015.0 |
| 20260903120829 | 72 | 74 | 136.0 | 137.0 | 0.00 | 0.00 | 0.00 | 86 | 1015.2 |
| 20260903120311 | 72 | 72 | 136.0 | 137.0 | 0.00 | 0.00 | 0.00 | 86 | 1015.3 |
| 20260903115812 | 72 | 73 | 136.0 | 137.0 | 0.00 | 0.00 | 0.00 | 86 | 1015.3 |
| 20260903115314 | 72 | 73 | 91.0 | 137.0 | 0.00 | 0.00 | 0.00 | 86 | 1015.3 |
| 20260903114823 | 72 | 78 | 2.0 | 5.0 | 0.00 | 0.00 | 0.00 | 86 | 1015.3 |
| 20260903114326 | 72 | 73 | 2.0 | 137.0 | 0.00 | 0.00 | 0.00 | 86 | 1015.3 |
| 20260903113835 | 72 | 72 | 2.0 | 137.0 | 0.00 | 0.00 | 0.00 | 86 | 1015.3 |
| 20260903113336 | 72 | 77 | 137.0 | 138.0 | 0.00 | 0.00 | 0.00 | 85 | 1015.2 |
| 20260903112817 | 72 | 78 | 137.0 | 137.0 | 0.00 | 0.00 | 0.00 | 85 | 1015.0 |
| 20260903112327 | 72 | 75 | 136.0 | 137.0 | 0.00 | 0.00 | 0.00 | 86 | 1015.1 |
| 20260903111827 | 72 | 74 | 137.0 | 137.0 | 0.00 | 0.00 | 0.00 | 86 | 1015.0 |
| 20260903111336 | 72 | 71 | 136.0 | 137.0 | 0.00 | 0.00 | 0.00 | 85 | 1015.1 |
| 20260903110838 | 72 | 76 | 137.0 | 137.0 | 0.00 | 0.00 | 0.00 | 85 | 1014.9 |
| 20260903110318 | 72 | 76 | 137.0 | 137.0 | 0.00 | 0.00 | 0.00 | 86 | 1014.8 |
| 20260903105847 | 72 | 77 | 137.0 | 137.0 | 0.00 | 0.00 | 0.00 | 86 | 1014.8 |
| 20260903105328 | 72 | 75 | 136.0 | 137.0 | 0.00 | 0.00 | 0.00 | 86 | 1014.8 |
| 20260903104836 | 72 | 75 | 137.0 | 137.0 | 0.00 | 0.00 | 0.00 | 86 | 1014.7 |
| 20260903104319 | 72 | 76 | 137.0 | 137.0 | 0.00 | 0.00 | 0.00 | 86 | 1014.9 |
| 20260903103821 | 72 | 78 | 137.0 | 137.0 | 0.00 | 0.00 | 0.00 | 86 | 1014.9 |
| 20260903103330 | 72 | 77 | 137.0 | 137.0 | 0.00 | 0.00 | 0.00 | 86 | 1014.9 |
| 20260903102831 | 72 | 76 | 137.0 | 137.0 | 0.00 | 0.00 | 0.00 | 86 | 1015.0 |
| 20260903102400 | 72 | 79 | 137.0 | 137.0 | 0.00 | 0.00 | 0.00 | 86 | 1015.0 |
| 20260903101820 | 72 | 79 | 137.0 | 137.0 | 0.00 | 0.00 | 0.00 | 86 | 1014.8 |
| 20260903101323 | 72 | 78 | 137.0 | 137.0 | 0.00 | 0.00 | 0.00 | 86 | 1014.8 |
| 20260903100831 | 72 | 78 | 137.0 | 137.0 | 0.00 | 0.00 | 0.00 | 86 | 1014.8 |
| 20260903100313 | 72 | 80 | 137.0 | 137.0 | 0.00 | 0.00 | 0.00 | 86 | 1014.8 |
| 20260903095815 | 72 | 76 | 137.0 | 137.0 | 0.00 | 0.00 | 0.00 | 86 | 1014.8 |
| 20260903095317 | 72 | 75 | 137.0 | 137.0 | 0.00 | 0.00 | 0.00 | 86 | 1014.9 |
| 20260903094826 | 72 | 76 | 137.0 | 137.0 | 0.00 | 0.00 | 0.00 | 86 | 1014.9 |
| 20260903094328 | 72 | 76 | 137.0 | 137.0 | 0.00 | 0.00 | 0.00 | 86 | 1014.9 |
| 20260903093836 | 72 | 76 | 136.0 | 137.0 | 0.00 | 0.00 | 0.00 | 86 | 1015.0 |
| 20260903093315 | 72 | 73 | 136.0 | 136.0 | 0.00 | 0.00 | 0.00 | 86 | 1014.9 |
| 20260903092837 | 72 | 69 | 136.0 | 137.0 | 0.00 | 0.00 | 0.00 | 86 | 1015.0 |
| 20260903092324 | 72 | 71 | 136.0 | 137.0 | 0.00 | 0.00 | 0.00 | 86 | 1014.8 |
| 20260903091827 | 72 | 69 | 136.0 | 137.0 | 0.00 | 0.00 | 0.00 | 86 | 1014.8 |
| 20260903091336 | 72 | 71 | 136.0 | 137.0 | 0.00 | 0.00 | 0.00 | 86 | 1014.8 |
| 20260903090815 | 72 | 70 | 136.0 | 137.0 | 0.00 | 0.00 | 0.00 | 86 | 1014.9 |
| 20260903090316 | 71 | 67 | 136.0 | 137.0 | 0.00 | 0.00 | 0.00 | 86 | 1014.9 |
| 20260903085818 | 71 | 67 | 136.0 | 137.0 | 0.00 | 0.00 | 0.00 | 86 | 1015.0 |
| 20260903085327 | 71 | 67 | 136.0 | 137.0 | 0.00 | 0.00 | 0.00 | 86 | 1015.0 |
| 20260903084850 | 71 | 63 | 136.0 | 137.0 | 0.00 | 0.00 | 0.00 | 86 | 1015.0 |
| 20260903084318 | 71 | 63 | 136.0 | 137.0 | 0.00 | 0.00 | 0.00 | 85 | 1014.9 |
| 20260903083819 | 71 | 65 | 136.0 | 136.0 | 0.00 | 0.00 | 0.00 | 86 | 1015.0 |
| 20260903083321 | 72 | 65 | 136.0 | 136.0 | 0.00 | 0.00 | 0.00 | 86 | 1014.9 |
| 20260903082830 | 72 | 63 | 135.0 | 137.0 | 0.00 | 0.00 | 0.00 | 86 | 1015.0 |
| 20260903082351 | 71 | 63 | 135.0 | 137.0 | 0.00 | 0.00 | 0.00 | 86 | 1014.9 |
| 20260903081818 | 71 | 62 | 135.0 | 137.0 | 0.00 | 0.00 | 0.00 | 86 | 1014.9 |
| 20260903081321 | 71 | 63 | 135.0 | 137.0 | 0.00 | 0.00 | 0.00 | 85 | 1014.9 |
| 20260903080829 | 71 | 49 | 135.0 | 136.0 | 0.00 | 0.00 | 0.00 | 85 | 1015.0 |
| 20260903080331 | 72 | 50 | 135.0 | 136.0 | 0.00 | 0.00 | 0.00 | 85 | 1015.0 |
| 20260903075814 | 72 | 48 | 135.0 | 136.0 | 0.00 | 0.00 | 0.00 | 85 | 1015.0 |
| 20260903075315 | 72 | 49 | 135.0 | 136.0 | 0.00 | 0.00 | 0.00 | 85 | 1015.0 |
| 20260903074824 | 72 | 50 | 135.0 | 136.0 | 0.00 | 0.00 | 0.00 | 85 | 1015.0 |
| 20260903074354 | 72 | 49 | 135.0 | 136.0 | 0.00 | 0.00 | 0.00 | 85 | 1015.1 |
| 20260903073813 | 72 | 49 | 135.0 | 136.0 | 0.00 | 0.00 | 0.00 | 85 | 1015.0 |
| 20260903073314 | 72 | 48 | 135.0 | 136.0 | 0.00 | 0.00 | 0.00 | 85 | 1015.0 |
| 20260903072816 | 72 | 48 | 135.0 | 136.0 | 0.00 | 0.00 | 0.00 | 85 | 1015.0 |
| 20260903072325 | 72 | 49 | 135.0 | 136.0 | 0.00 | 0.00 | 0.00 | 85 | 1015.0 |
| 20260903071827 | 72 | 50 | 135.0 | 136.0 | 0.00 | 0.00 | 0.00 | 85 | 1015.0 |
| 20260903071337 | 72 | 50 | 135.0 | 136.0 | 0.00 | 0.00 | 0.00 | 85 | 1015.1 |
| 20260903070816 | 72 | 50 | 135.0 | 136.0 | 0.00 | 0.00 | 0.00 | 85 | 1015.1 |
| 20260903070342 | 72 | 50 | 135.0 | 136.0 | 0.00 | 0.00 | 0.00 | 85 | 1015.1 |
| 20260903065844 | 72 | 50 | 135.0 | 136.0 | 0.00 | 0.00 | 0.00 | 85 | 1015.1 |
| 20260903065331 | 72 | 50 | 135.0 | 136.0 | 0.00 | 0.00 | 0.00 | 85 | 1015.1 |
| 20260903064813 | 72 | 48 | 135.0 | 136.0 | 0.00 | 0.00 | 0.00 | 85 | 1015.1 |
| 20260903064316 | 72 | 50 | 135.0 | 136.0 | 0.00 | 0.00 | 0.00 | 85 | 1015.1 |
| 20260903063824 | 72 | 49 | 135.0 | 136.0 | 0.00 | 0.00 | 0.00 | 85 | 1015.0 |
| 20260903063326 | 72 | 48 | 135.0 | 136.0 | 0.00 | 0.00 | 0.00 | 85 | 1015.0 |
| 20260903062828 | 72 | 48 | 135.0 | 136.0 | 0.00 | 0.00 | 0.00 | 85 | 1015.1 |
| 20260903062336 | 72 | 48 | 135.0 | 136.0 | 0.00 | 0.00 | 0.00 | 85 | 1014.9 |
| 20260903061818 | 72 | 49 | 135.0 | 136.0 | 0.00 | 0.00 | 0.00 | 85 | 1015.0 |
| 20260903061320 | 72 | 50 | 135.0 | 136.0 | 0.00 | 0.00 | 0.00 | 85 | 1015.0 |
| 20260903060829 | 72 | 48 | 135.0 | 136.0 | 0.00 | 0.00 | 0.00 | 85 | 1014.9 |
| 20260903060315 | 72 | 50 | 135.0 | 136.0 | 0.00 | 0.00 | 0.00 | 85 | 1014.9 |
| 20260903055816 | 72 | 50 | 135.0 | 136.0 | 0.00 | 0.00 | 0.00 | 85 | 1014.9 |
| 20260903055325 | 72 | 50 | 135.0 | 136.0 | 0.00 | 0.00 | 0.00 | 85 | 1014.9 |
| 20260903054827 | 72 | 50 | 135.0 | 136.0 | 0.00 | 0.00 | 0.00 | 85 | 1014.8 |
| 20260903054353 | 73 | 49 | 135.0 | 136.0 | 0.00 | 0.00 | 0.00 | 85 | 1014.8 |
| 20260903053817 | 73 | 49 | 135.0 | 136.0 | 0.00 | 0.00 | 0.00 | 85 | 1014.7 |
| 20260903053318 | 73 | 50 | 104.0 | 136.0 | 0.00 | 0.00 | 0.00 | 85 | 1014.7 |
| 20260903052820 | 73 | 48 | 0.0 | 2.0 | 0.00 | 0.00 | 0.00 | 85 | 1014.8 |
| 20260903052329 | 73 | 50 | 0.0 | 2.0 | 0.00 | 0.00 | 0.00 | 84 | 1014.8 |
| 20260903051831 | 73 | 49 | 0.0 | 1.0 | 0.00 | 0.00 | 0.00 | 85 | 1014.8 |
| 20260903051314 | 73 | 49 | 0.0 | 0.0 | 0.00 | 0.00 | 0.00 | 85 | 1014.8 |
| 20260903050822 | 73 | 48 | 0.0 | 0.0 | 0.00 | 0.00 | 0.00 | 85 | 1014.7 |
| 20260903050323 | 73 | 49 | 0.0 | 0.0 | 0.00 | 0.00 | 0.00 | 85 | 1014.7 |
| 20260903045832 | 73 | 49 | 0.0 | 0.0 | 0.00 | 0.00 | 0.00 | 85 | 1014.8 |
| 20260903045334 | 73 | 49 | 0.0 | 0.0 | 0.00 | 0.00 | 0.00 | 85 | 1014.7 |
| 20260903044838 | 73 | 50 | 0.0 | 2.0 | 0.00 | 0.00 | 0.00 | 85 | 1014.7 |
| 20260903044320 | 73 | 49 | 0.0 | 2.0 | 0.00 | 0.00 | 0.00 | 85 | 1014.6 |
| 20260903043828 | 73 | 48 | 1.0 | 2.0 | 0.00 | 0.00 | 0.00 | 85 | 1014.6 |
| 20260903043313 | 73 | 50 | 0.0 | 1.0 | 0.00 | 0.00 | 0.00 | 85 | 1014.6 |
| 20260903042815 | 73 | 49 | 0.0 | 1.0 | 0.00 | 0.00 | 0.00 | 85 | 1014.7 |
| 20260903042341 | 73 | 49 | 0.0 | 1.0 | 0.00 | 0.00 | 0.00 | 84 | 1014.7 |
| 20260903041823 | 73 | 49 | 0.0 | 0.0 | 0.00 | 0.00 | 0.00 | 85 | 1014.6 |
| 20260903041352 | 73 | 49 | 0.0 | 0.0 | 0.00 | 0.00 | 0.00 | 85 | 1014.7 |
| 20260903040839 | 73 | 48 | 0.0 | 0.0 | 0.00 | 0.00 | 0.00 | 85 | 1014.7 |
| 20260903040317 | 73 | 48 | 0.0 | 1.0 | 0.00 | 0.00 | 0.00 | 85 | 1014.6 |
| 20260903035847 | 73 | 49 | 0.0 | 1.0 | 0.00 | 0.00 | 0.00 | 85 | 1014.6 |
| 20260903035328 | 73 | 49 | 0.0 | 1.0 | 0.00 | 0.00 | 0.00 | 85 | 1014.5 |
| 20260903034830 | 73 | 48 | 0.0 | 1.0 | 0.00 | 0.00 | 0.00 | 85 | 1014.6 |
| 20260903034339 | 73 | 49 | 0.0 | 2.0 | 0.00 | 0.00 | 0.00 | 85 | 1014.4 |
| 20260903033820 | 73 | 49 | 1.0 | 2.0 | 0.00 | 0.00 | 0.00 | 85 | 1014.4 |
| 20260903033322 | 73 | 48 | 1.0 | 2.0 | 0.00 | 0.00 | 0.00 | 85 | 1014.3 |
| 20260903032830 | 73 | 48 | 1.0 | 2.0 | 0.00 | 0.00 | 0.00 | 85 | 1014.4 |
| 20260903032312 | 73 | 49 | 1.0 | 1.0 | 0.00 | 0.00 | 0.00 | 85 | 1014.4 |
| 20260903031813 | 73 | 50 | 0.0 | 2.0 | 0.00 | 0.00 | 0.00 | 85 | 1014.4 |
| 20260903031316 | 73 | 48 | 1.0 | 2.0 | 0.00 | 0.00 | 0.00 | 85 | 1014.3 |
| 20260903030822 | 73 | 48 | 1.0 | 2.0 | 0.00 | 0.00 | 0.00 | 85 | 1014.3 |
| 20260903030324 | 73 | 49 | 1.0 | 2.0 | 0.00 | 0.00 | 0.00 | 85 | 1014.4 |
| 20260903025833 | 73 | 49 | 1.0 | 2.0 | 0.00 | 0.00 | 0.00 | 85 | 1014.4 |
| 20260903025318 | 74 | 49 | 1.0 | 2.0 | 0.00 | 0.00 | 0.00 | 85 | 1014.6 |
| 20260903024820 | 74 | 49 | 1.0 | 2.0 | 0.00 | 0.00 | 0.00 | 85 | 1014.6 |
| 20260903024329 | 73 | 49 | 1.0 | 2.0 | 0.00 | 0.00 | 0.00 | 85 | 1014.6 |
| 20260903023827 | 74 | 49 | 1.0 | 2.0 | 0.00 | 0.00 | 0.00 | 85 | 1014.6 |
| 20260903023328 | 74 | 50 | 1.0 | 2.0 | 0.00 | 0.00 | 0.00 | 85 | 1014.7 |
| 20260903022836 | 74 | 50 | 1.0 | 2.0 | 0.00 | 0.00 | 0.00 | 84 | 1014.6 |